FW1161 Weather Reports


Display with metric or nautical units.
time (UTC)temp
F
wind
direction
speed
MPH
gust
MPH
rain 1hr
in
rain 24hr
in
rain mn
in
humidity
%
barometer
mb
20260510111614 51 295 0.0 1.0 0.00 0.10 0.01 97 1005.0
20260510110033 51 295 0.0 4.0 0.00 0.10 0.01 97 1004.8
20260510104551 51 296 0.0 0.0 0.00 0.10 0.01 97 1004.4
20260510103020 51 295 0.0 3.0 0.01 0.10 0.01 97 1004.2
20260510101539 51 295 0.0 0.0 0.01 0.10 0.01 97 1004.3
20260510100054 50 295 0.0 1.0 0.01 0.10 0.01 97 1004.3
20260510094504 50 295 0.0 1.0 0.01 0.10 0.01 97 1004.0
20260510093022 50 296 1.0 4.0 0.00 0.09 0.00 97 1004.0
20260510091531 50 295 0.0 0.0 0.00 0.09 0.00 97 1004.0
20260510090054 50 295 0.0 3.0 0.00 0.09 0.00 97 1004.2
20260510084517 50 295 0.0 3.0 0.00 0.09 0.00 97 1003.7
20260510083043 49 295 1.0 5.0 0.00 0.09 0.00 97 1003.6
20260510081504 49 296 0.0 0.0 0.00 0.09 0.00 97 1003.4
20260510080017 49 296 0.0 0.0 0.00 0.09 0.00 97 1003.4
20260510074533 49 296 0.0 2.0 0.00 0.09 0.00 97 1003.3
20260510073006 49 296 0.0 1.0 0.00 0.09 0.00 97 1003.3
20260510071523 49 296 0.0 1.0 0.00 0.09 0.00 97 1003.4
20260510070040 49 296 0.0 1.0 0.00 0.09 0.00 97 1003.1
20260510064508 49 296 0.0 0.0 0.00 0.09 0.00 97 1002.8
20260510063026 49 296 0.0 1.0 0.00 0.09 0.00 97 1002.7
20260510061557 50 296 0.0 0.0 0.00 0.09 0.00 97 1002.9
20260510060019 49 296 0.0 0.0 0.00 0.09 0.00 97 1002.9
20260510054533 49 296 0.0 0.0 0.00 0.09 0.00 96 1003.1
20260510053049 49 296 0.0 0.0 0.00 0.09 0.00 96 1003.2
20260510051516 50 296 0.0 0.0 0.00 0.09 0.00 96 1003.3
20260510050053 50 296 0.0 0.0 0.00 0.09 0.00 96 1003.4
20260510044503 50 296 0.0 0.0 0.00 0.09 0.00 96 1003.4
20260510043022 50 296 0.0 0.0 0.00 0.09 0.00 96 1003.5
20260510041532 50 296 0.0 0.0 0.00 0.09 0.00 96 1003.6
20260510040055 50 296 0.0 0.0 0.00 0.09 0.00 96 1003.7
20260510034524 50 295 0.0 0.0 0.00 0.09 0.09 96 1003.5
20260510033059 50 296 0.0 0.0 0.00 0.09 0.09 96 1003.3
20260510031524 50 296 0.0 0.0 0.00 0.09 0.09 96 1003.1
20260510030046 50 296 0.0 0.0 0.00 0.09 0.09 96 1003.1
20260510024602 51 296 0.0 0.0 0.00 0.09 0.09 96 1003.0
20260510023013 51 296 0.0 0.0 0.00 0.09 0.09 96 1003.1
20260510021539 51 296 0.0 0.0 0.00 0.09 0.09 95 1003.0
20260510020011 52 296 0.0 0.0 0.00 0.09 0.09 95 1002.9
20260510014546 52 296 0.0 0.0 0.00 0.09 0.09 95 1002.9
20260510013014 53 296 0.0 0.0 0.00 0.09 0.09 95 1002.9
20260510011542 53 296 0.0 0.0 0.00 0.09 0.09 95 1002.8
20260510010128 53 296 0.0 0.0 0.00 0.09 0.09 95 1002.7
20260510004514 53 296 0.0 0.0 0.00 0.09 0.09 94 1002.5
20260510003048 54 296 0.0 0.0 0.00 0.09 0.09 93 1002.5
20260510001506 55 296 0.0 0.0 0.00 0.09 0.09 93 1002.4
20260510000021 55 296 0.0 0.0 0.00 0.09 0.09 92 1002.5
20260509234537 56 295 0.0 0.0 0.00 0.09 0.09 92 1002.5
20260509233011 57 296 0.0 0.0 0.00 0.09 0.09 91 1002.4
20260509231536 57 296 0.0 1.0 0.00 0.09 0.09 92 1002.3
20260509224537 57 296 0.0 1.0 0.00 0.09 0.09 93 1002.4
20260509223101 57 296 0.0 3.0 0.00 0.09 0.09 93 1002.3
20260509221528 56 296 0.0 4.0 0.00 0.09 0.09 93 1002.3
20260509220133 56 296 2.0 4.0 0.01 0.09 0.09 92 1002.5
20260509214555 56 296 0.0 4.0 0.09 0.09 0.09 92 1002.5
20260509213008 57 295 0.0 2.0 0.09 0.09 0.09 91 1002.8
20260509211610 57 295 0.0 0.0 0.09 0.09 0.09 91 1002.8
20260509210045 56 295 0.0 3.0 0.08 0.08 0.08 89 1002.6
20260509204607 57 295 0.0 1.0 0.00 0.00 0.00 87 1002.5
20260509203025 58 306 2.0 5.0 0.00 0.00 0.00 86 1002.6
20260509201603 58 296 1.0 6.0 0.00 0.00 0.00 87 1002.4
20260509200019 58 290 1.0 11.0 0.00 0.00 0.00 87 1002.7
20260509194550 58 317 1.0 7.0 0.00 0.00 0.00 85 1002.6
20260509193010 58 296 3.0 7.0 0.00 0.00 0.00 85 1003.0
20260509191518 58 7 1.0 4.0 0.00 0.00 0.00 86 1003.5
20260509190033 58 303 3.0 6.0 0.00 0.00 0.00 84 1003.3
20260509184601 58 289 0.0 5.0 0.00 0.00 0.00 84 1003.5
20260509183024 59 294 3.0 8.0 0.00 0.00 0.00 82 1003.5
20260509181654 60 311 2.0 6.0 0.00 0.00 0.00 81 1003.6
20260509180032 60 344 1.0 5.0 0.00 0.00 0.00 78 1003.6
20260509174558 60 292 3.0 8.0 0.00 0.00 0.00 77 1003.4
20260509173025 60 295 3.0 13.0 0.00 0.00 0.00 76 1003.3
20260509171536 60 314 2.0 7.0 0.00 0.00 0.00 75 1003.6
20260509170006 61 311 4.0 10.0 0.00 0.00 0.00 78 1003.6
20260509164608 61 267 1.0 8.0 0.00 0.00 0.00 77 1003.6
20260509163019 61 293 3.0 5.0 0.00 0.00 0.00 76 1003.6
20260509161538 62 249 1.0 9.0 0.00 0.00 0.00 71 1003.8
20260509160012 63 277 4.0 11.0 0.00 0.00 0.00 66 1004.0
20260509154527 63 308 3.0 6.0 0.00 0.00 0.00 69 1004.2
20260509153050 63 298 2.0 9.0 0.00 0.00 0.00 71 1004.2
20260509151519 63 274 2.0 7.0 0.00 0.00 0.00 69 1004.3
20260509150050 63 294 2.0 4.0 0.00 0.00 0.00 70 1004.2
20260509144606 63 319 3.0 9.0 0.00 0.00 0.00 69 1004.1
20260509143015 63 275 1.0 4.0 0.00 0.00 0.00 69 1004.0
20260509141544 63 294 0.0 4.0 0.00 0.00 0.00 72 1003.9
20260509140013 63 270 0.0 3.0 0.00 0.00 0.00 74 1003.7
20260509134532 61 272 1.0 6.0 0.00 0.00 0.00 75 1003.9
20260509133012 61 254 1.0 3.0 0.00 0.00 0.00 75 1003.9
20260509131527 61 280 1.0 4.0 0.00 0.00 0.00 76 1003.9
20260509130058 60 249 0.0 5.0 0.00 0.00 0.00 77 1004.1
20260509124511 60 287 0.0 3.0 0.00 0.00 0.00 79 1004.2
20260509123038 59 291 0.0 0.0 0.00 0.00 0.00 80 1004.1
20260509121507 57 291 0.0 0.0 0.00 0.00 0.00 81 1004.1
20260509120033 57 291 0.0 0.0 0.00 0.00 0.00 82 1004.1
20260509114544 56 291 0.0 0.0 0.00 0.00 0.00 81 1004.1
20260509113002 56 291 0.0 1.0 0.00 0.00 0.00 82 1004.1